Russellville, AR

5:37 PM CDT on May 25, 2017 (GMT -0500)
Russellville Regional

Weather History for KRUE - April, 2013

Change the Weather History Date:

Monday, April 22, 2013

  Actual Average (KHOT) Record (KHOT)
Temperature  
Mean Temperature 58 °F -  
Max Temperature 77 °F 75 °F 92 °F (1965)
Min Temperature 42 °F 51 °F 38 °F (1993)
Degree Days  
Heating Degree Days 6    
Growing Degree Days 8 (Base 50)    
Moisture  
Dew Point 43 °F    
Average Humidity 56    
Maximum Humidity 89    
Minimum Humidity 30    
Precipitation  
Precipitation 0.00 in - - ()
Sea Level Pressure  
Sea Level Pressure 30.06 in    
Wind  
Wind Speed 2 mph (East)    
Max Wind Speed 8 mph    
Max Gust Speed -    
Visibility 10 miles    
Events      
Averages and records for this station are not official NWS values.
T = Trace of Precipitation, MM = Missing Value Source: NWS Daily Summary

Daily Weather History Graph

Daily Weather History Graph

Search for Another Location

Airport or City:

Trip Planner

Search our weather history database for the weather conditions in past years. The results will help you decide how hot, cold, wet, or windy it might be!

Date:

Astronomy

Apr. 22, 2013 Rise Set
Actual Time 6:31 AM CDT 7:51 PM CDT
Civil Twilight 6:04 AM CDT 8:17 PM CDT
Nautical Twilight 5:32 AM CDT 8:49 PM CDT
Astronomical Twilight 4:59 AM CDT 9:22 PM CDT
Moon 4:46 PM CDT (4/22) 4:18 AM CDT (4/22)
Length of Visible Light 14h 13m
Length of Day
13h 20m
Waxing Gibbous, 88% of the Moon is Illuminated
Apr 22
Waxing Gibbous
Apr 25
Full
May 2
Last Quarter
May 9
New
May 17
First Quarter

Hourly Weather History & Observations

Time (CDT) Temp. Dew Point Humidity Pressure Visibility Wind Dir Wind Speed Gust Speed Precip Events Conditions
12:53 AM 48.9 °F 42.1 °F 77% 30.20 in 10.0 mi Calm Calm - N/A   Clear
1:53 AM 50.0 °F 39.9 °F 68% 30.19 in 10.0 mi Calm Calm - N/A   Clear
2:53 AM 45.0 °F 41.0 °F 86% 30.17 in 10.0 mi Calm Calm - N/A   Clear
3:53 AM 45.0 °F 41.0 °F 86% 30.15 in 10.0 mi Calm Calm - N/A   Clear
4:53 AM 44.1 °F 39.9 °F 85% 30.14 in 10.0 mi Calm Calm - N/A   Clear
5:53 AM 42.1 °F 39.0 °F 89% 30.13 in 10.0 mi Calm Calm - N/A   Clear
6:53 AM 42.1 °F 39.0 °F 89% 30.15 in 10.0 mi Calm Calm - N/A   Clear
7:53 AM 48.0 °F 44.1 °F 86% 30.15 in 10.0 mi Calm Calm - N/A   Clear
8:53 AM 57.0 °F 43.0 °F 59% 30.16 in 10.0 mi Calm Calm - N/A   Clear
9:53 AM 61.0 °F 42.1 °F 50% 30.15 in 10.0 mi Variable 5.8 mph - N/A   Clear
10:53 AM 64.9 °F 44.1 °F 47% 30.14 in 10.0 mi Variable 4.6 mph - N/A   Clear
11:53 AM 68.0 °F 44.1 °F 42% 30.12 in 10.0 mi Calm Calm - N/A   Clear
12:53 PM 71.1 °F 44.1 °F 38% 30.08 in 10.0 mi Variable 4.6 mph - N/A   Clear
1:53 PM 73.0 °F 42.1 °F 33% 30.04 in 10.0 mi Variable 3.5 mph - N/A   Clear
2:53 PM 73.9 °F 42.1 °F 32% 30.01 in 10.0 mi Variable 4.6 mph - N/A   Clear
3:53 PM 75.9 °F 42.1 °F 30% 29.97 in 10.0 mi East 8.1 mph - N/A   Clear
4:53 PM 75.9 °F 44.1 °F 32% 29.94 in 10.0 mi Variable 5.8 mph - N/A   Clear
5:53 PM 75.9 °F 44.1 °F 32% 29.94 in 10.0 mi Variable 4.6 mph - N/A   Clear
6:53 PM 73.9 °F 45.0 °F 35% 29.94 in 10.0 mi Variable 5.8 mph - N/A   Clear
7:53 PM 68.0 °F 46.9 °F 47% 29.94 in 10.0 mi East 4.6 mph - N/A   Clear
8:53 PM 66.0 °F 46.9 °F 50% 29.95 in 10.0 mi Variable 4.6 mph - N/A   Clear
9:53 PM 64.0 °F 46.9 °F 54% 29.97 in 10.0 mi Variable 4.6 mph - N/A   Clear
10:53 PM 64.0 °F 46.0 °F 52% 29.97 in 10.0 mi Variable 3.5 mph - N/A   Clear
11:53 PM 63.0 °F 46.0 °F 54% 29.96 in 10.0 mi Calm Calm - N/A   Clear